Hourly Data Report for October 23, 2016

All times are specified in Local Standard Time (LST). Add 1 hour to adjust for Daylight Saving Time where and when it is observed.

CORAL HARBOUR A
NUNAVUT

64°11'36.000" N
83°21'34.000" W
62.20 m
2301002
71915
YZS

Download Data

Hourly Data (October 2016)
Hourly Data Report for October 23, 2016
Temp Definition
°C
Dew Point Temp Definition
°C
Rel Hum Definition
%
Wind Dir Definition
10's deg

Wind Spd Definition
km/h
Visibility Definition
km
Stn Press Definition
kPa
Hmdx Definition


Wind Chill Definition


Weather Definition


TIME
00:00 Legend Double Dagger -4.7 -7.5 81 10 23 24.1 102.28   -12 LegendNANA
01:00
02:00 Legend Double Dagger -4.7 -7.0 84 10 20 24.1 102.37   -11 Snow
03:00 Legend Double Dagger -4.5 -7.4 80 9 27 24.1 102.35   -12 LegendNANA
04:00 Legend Double Dagger -4.7 -7.5 81 10 28 24.1 102.39   -12 Snow
05:00 Legend Double Dagger -4.7 -7.5 81 9 27 24.1 102.43   -12 Snow
06:00 Legend Double Dagger -4.9 -7.7 81 10 27 24.1 102.44   -12 Snow
07:00 Legend Double Dagger -4.9 -7.8 80 9 30 24.1 102.47   -13 Snow,Blowing Snow
08:00 Legend Double Dagger -5.1 -8.4 78 10 28 24.1 102.49   -13 Snow
09:00 Legend Double Dagger -4.9 -8.0 79 10 30 24.1 102.53   -13 Snow
10:00 Legend Double Dagger -4.7 -7.8 79 10 26 24.1 102.54   -12 Snow
11:00 Legend Double Dagger -4.5 -7.8 78 9 28 24.1 102.56   -12 Snow
12:00 Legend Double Dagger -4.4 -7.4 80 8 23 24.1 102.58   -11 Snow
13:00 Legend Double Dagger -4.3 -6.9 82 10 16 24.1 102.57   -10 Snow
14:00 Legend Double Dagger -4.3 -7.3 80 8 21 24.1 102.57   -11 Snow
15:00 Legend Double Dagger -4.5 -7.4 80 8 23 24.1 102.60   -11 LegendNANA
16:00 Legend Double Dagger -4.6 -7.4 81 7 22 24.1 102.63   -11 Cloudy
17:00 Legend Double Dagger -5.1 -7.9 81 7 24 24.1 102.67   -12 LegendNANA
18:00 Legend Double Dagger -5.2 -8.0 81 7 27 24.1 102.70   -13 LegendNANA
19:00 Legend Double Dagger -5.2 -8.0 81 7 23 24.1 102.73   -12 Cloudy
20:00 Legend Double Dagger -5.4 -8.2 81 7 22 24.1 102.71   -12 LegendNANA
21:00 Legend Double Dagger -5.5 -8.3 81 8 13 24.1 102.71   -11 LegendNANA
22:00 Legend Double Dagger -5.7 -8.9 78 8 18 24.1 102.70   -12 Cloudy
23:00 Legend Double Dagger -5.6 -8.0 83 7 18 24.1 102.68   -12 LegendNANA

Notes on Data Quality.

Legend

  • E = Estimated
  • M = Missing
  • NA = Not Available
  • ‡ = Partner data that is not subject to review by the National Climate Archives
Date modified: